Tracking 23610 objects as of 20-Sep-2021
HD Live streaming from Space Station
objects crossing your sky now

STARLINK-2592

Track STARLINK-2592 now!
10-day predictions
STARLINK-2592 is classified as:


NORAD ID: 48408
Int'l Code: 2021-038BH
Perigee: 552.7 km
Apogee: 556.1 km
Inclination: 53.1 °
Period: 95.6 minutes
Semi major axis: 6925 km
RCS: Unknown
Launch date: May 4, 2021
Source: United States (US)
Launch site: AIR FORCE EASTERN TEST RANGE (AFETR)
aabbcc
Your satellite tracking list
Your tracking list is empty




NASA's NSSDC Master Catalog

Two Line Element Set (TLE):
1 48408U 21038BH  21262.91667824  .00010091  00000-0  69546-3 0  9998
2 48408  53.0514 106.9280 0002435  86.4403 276.5837 15.06394448  3598
Source of the keplerian elements: AFSPC